Terminal Aerodrome Forecast
Issued by NWS Charleston, WV

Current Version | Previous Version | Text Only | Print | Product List | Glossary Off
Versions: 1 2 3 4 5 6 7 8 9 10 11 12 13 14 15 16 17 18 19 20 21 22 23

469
FTUS41 KRLX 260842 AAA
TAFPKB
TAF AMD
KPKB 260842Z 2609/2706 00000KT P6SM SKC
     FM261600 20008KT P6SM BKN050
     FM261800 22009KT 5SM SHRA VCTS OVC050CB
     FM262000 28009KT 5SM SHRA VCTS OVC040CB
     FM262200 29009KT P6SM BKN025
     FM270000 27008KT P6SM SCT050
     FM270300 VRB03KT 4SM BR FEW250=

USA.gov is the U.S. government's official web portal to all federal, state and local government web resources and services.